• In Hungary
  • List of Countries
  • For 7 days
  • Water Temperature
  • Satellite Maps
  • Weather Map
  • News
  • Weather Widgets
  • user-avatar
    Login

    Hourly Weather Kapan

    Today, 24 February, Saturday

    Time Temperature Precipitation Wind Pressure Humidity
    00:00 +4°C° 0 mm 0 mps 680 mmHg 75%
    01:00 +5°C° 0 mm 1 mps 680 mmHg 74%
    02:00 +5°C° 0 mm 1 mps 679 mmHg 73%
    03:00 +4°C° 0 mm 1 mps 679 mmHg 71%
    04:00 +4°C° 0 mm 1 mps 679 mmHg 71%
    05:00 +4°C° 0 mm 1 mps 679 mmHg 71%
    06:00 +4°C° 0 mm 1 mps 679 mmHg 70%
    07:00 +5°C° 0 mm 1 mps 679 mmHg 68%
    08:00 +6°C° 0 mm 1 mps 679 mmHg 66%
    09:00 +8°C° 0 mm 1 mps 679 mmHg 63%
    10:00 +9°C° 0 mm 1 mps 679 mmHg 62%
    11:00 +9°C° 0 mm 1 mps 679 mmHg 61%
    12:00 +10°C° 0 mm 1 mps 679 mmHg 60%
    13:00 +10°C° 0 mm 1 mps 679 mmHg 60%
    14:00 +10°C° 0 mm 1 mps 678 mmHg 59%
    15:00 +11°C° 0 mm 1 mps 678 mmHg 59%
    16:00 +10°C° 0 mm 1 mps 678 mmHg 63%
    17:00 +9°C° 0 mm 1 mps 678 mmHg 66%
    18:00 +8°C° 0 mm 1 mps 678 mmHg 70%
    19:00 +7°C° 0 mm 1 mps 678 mmHg 71%
    20:00 +7°C° 0 mm 1 mps 679 mmHg 72%
    21:00 +6°C° 0 mm 1 mps 679 mmHg 72%
    22:00 +6°C° 0 mm 1 mps 679 mmHg 71%
    23:00 +6°C° 0 mm 1 mps 679 mmHg 69%

    Tomorrow, 25 February, Sunday

    Time Temperature Precipitation Wind Pressure Humidity
    00:00 +6°C° 0 mm 1 mps 679 mmHg 67%
    01:00 +4°C° 0 mm 2 mps 679 mmHg 66%
    02:00 +4°C° 0 mm 2 mps 679 mmHg 64%
    03:00 +4°C° 0 mm 2 mps 679 mmHg 63%
    04:00 +4°C° 0 mm 2 mps 679 mmHg 63%
    05:00 +3°C° 0 mm 2 mps 679 mmHg 64%
    06:00 +3°C° 0 mm 2 mps 679 mmHg 64%
    07:00 +5°C° 0 mm 2 mps 679 mmHg 61%
    08:00 +6°C° 0 mm 2 mps 679 mmHg 58%
    09:00 +8°C° 0 mm 2 mps 680 mmHg 55%
    10:00 +8°C° 0 mm 2 mps 679 mmHg 53%
    11:00 +9°C° 0 mm 2 mps 679 mmHg 51%
    12:00 +10°C° 0 mm 2 mps 679 mmHg 48%
    13:00 +12°C° 0 mm 2 mps 678 mmHg 47%
    14:00 +12°C° 0 mm 2 mps 678 mmHg 46%
    15:00 +12°C° 0 mm 2 mps 678 mmHg 45%
    16:00 +10°C° 0 mm 2 mps 678 mmHg 49%
    17:00 +9°C° 0 mm 2 mps 677 mmHg 53%
    18:00 +8°C° 0 mm 2 mps 677 mmHg 58%
    19:00 +7°C° 0 mm 2 mps 678 mmHg 58%
    20:00 +7°C° 0 mm 2 mps 678 mmHg 59%
    21:00 +6°C° 0 mm 2 mps 678 mmHg 60%
    22:00 +6°C° 0 mm 2 mps 678 mmHg 60%
    23:00 +6°C° 0 mm 2 mps 678 mmHg 59%

    Day after tomorrow, 26 February, Monday

    Time Temperature Precipitation Wind Pressure Humidity
    00:00 +6°C° 0 mm 2 mps 678 mmHg 59%
    01:00 +6°C° 0 mm 2 mps 678 mmHg 59%
    02:00 +6°C° 0 mm 2 mps 678 mmHg 59%
    03:00 +6°C° 0 mm 2 mps 677 mmHg 59%
    04:00 +6°C° 0 mm 2 mps 677 mmHg 59%
    05:00 +6°C° 0 mm 2 mps 677 mmHg 60%
    06:00 +6°C° 0 mm 2 mps 677 mmHg 61%
    07:00 +7°C° 0 mm 2 mps 678 mmHg 59%
    08:00 +8°C° 0 mm 2 mps 678 mmHg 56%
    09:00 +9°C° 0 mm 2 mps 679 mmHg 54%
    10:00 +10°C° 0 mm 2 mps 678 mmHg 53%
    11:00 +12°C° 0 mm 2 mps 678 mmHg 51%
    12:00 +13°C° 0 mm 2 mps 678 mmHg 49%
    13:00 +13°C° 0 mm 2 mps 678 mmHg 49%
    14:00 +13°C° 0 mm 2 mps 678 mmHg 49%
    15:00 +13°C° 0 mm 2 mps 678 mmHg 49%
    16:00 +12°C° 0.3 mm 2 mps 678 mmHg 55%
    17:00 +10°C° 0.3 mm 2 mps 678 mmHg 60%
    18:00 +9°C° 0.3 mm 1 mps 678 mmHg 65%
    19:00 +9°C° 0.4 mm 1 mps 678 mmHg 68%
    20:00 +8°C° 0.4 mm 1 mps 679 mmHg 71%
    21:00 +8°C° 0.4 mm 1 mps 679 mmHg 73%
    22:00 +8°C° 0.4 mm 1 mps 679 mmHg 75%
    23:00 +7°C° 0.4 mm 1 mps 679 mmHg 76%

    27 February, Tuesday

    Time Temperature Precipitation Wind Pressure Humidity
    00:00 +7°C° 0.4 mm 1 mps 679 mmHg 78%
    01:00 +7°C° 0.3 mm 1 mps 680 mmHg 78%
    02:00 +5°C° 0.3 mm 0 mps 680 mmHg 79%
    03:00 +5°C° 0.3 mm 0 mps 680 mmHg 80%
    04:00 +5°C° 0.2 mm 0 mps 680 mmHg 81%
    05:00 +5°C° 0.2 mm 0 mps 680 mmHg 81%
    06:00 +5°C° 0.2 mm 0 mps 680 mmHg 82%
    07:00 +5°C° 0.1 mm 0 mps 681 mmHg 79%
    08:00 +7°C° 0.1 mm 1 mps 681 mmHg 76%
    09:00 +7°C° 0.1 mm 1 mps 682 mmHg 74%
    10:00 +8°C° 0.1 mm 1 mps 682 mmHg 72%
    11:00 +9°C° 0.1 mm 1 mps 681 mmHg 69%
    12:00 +9°C° 0.1 mm 2 mps 681 mmHg 67%
    13:00 +9°C° 0.1 mm 2 mps 681 mmHg 67%
    14:00 +9°C° 0.1 mm 2 mps 681 mmHg 67%
    15:00 +9°C° 0.1 mm 2 mps 681 mmHg 66%
    16:00 +8°C° 0 mm 2 mps 681 mmHg 70%
    17:00 +9°C° 0 mm 1 mps 681 mmHg 74%
    18:00 +8°C° 0 mm 1 mps 681 mmHg 77%
    19:00 +8°C° 0 mm 1 mps 682 mmHg 77%
    20:00 +7°C° 0 mm 1 mps 682 mmHg 77%
    21:00 +7°C° 0 mm 1 mps 682 mmHg 78%
    22:00 +7°C° 0 mm 1 mps 682 mmHg 76%
    23:00 +7°C° 0 mm 1 mps 682 mmHg 74%

    28 February, Wednesday

    Time Temperature Precipitation Wind Pressure Humidity
    00:00 +6°C° 0 mm 1 mps 682 mmHg 72%
    01:00 +6°C° 0 mm 1 mps 682 mmHg 71%
    02:00 +6°C° 0 mm 1 mps 682 mmHg 70%
    03:00 +6°C° 0 mm 1 mps 682 mmHg 69%
    04:00 +6°C° 0 mm 1 mps 683 mmHg 69%
    05:00 +6°C° 0 mm 1 mps 683 mmHg 69%
    06:00 +6°C° 0 mm 1 mps 683 mmHg 69%
    07:00 +7°C° 0 mm 1 mps 684 mmHg 66%
    08:00 +8°C° 0 mm 1 mps 684 mmHg 63%
    09:00 +9°C° 0 mm 1 mps 685 mmHg 60%
    10:00 +10°C° 0 mm 1 mps 684 mmHg 58%
    11:00 +11°C° 0 mm 1 mps 684 mmHg 56%
    12:00 +12°C° 0 mm 1 mps 684 mmHg 54%
    13:00 +12°C° 0 mm 2 mps 684 mmHg 54%
    14:00 +12°C° 0 mm 2 mps 684 mmHg 53%
    15:00 +12°C° 0 mm 2 mps 684 mmHg 53%
    16:00 +10°C° 0 mm 2 mps 684 mmHg 59%
    17:00 +9°C° 0 mm 2 mps 684 mmHg 64%
    18:00 +9°C° 0 mm 1 mps 684 mmHg 70%
    19:00 +9°C° 0 mm 1 mps 684 mmHg 73%
    20:00 +8°C° 0 mm 1 mps 684 mmHg 76%
    21:00 +7°C° 0 mm 0 mps 684 mmHg 79%
    22:00 +7°C° 0 mm 0 mps 684 mmHg 80%
    23:00 +6°C° 0 mm 0 mps 684 mmHg 80%

    1 March, Thursday

    Time Temperature Precipitation Wind Pressure Humidity
    00:00 +6°C° 0 mm 0 mps 684 mmHg 81%
    01:00 +7°C° 0 mm 1 mps 684 mmHg 80%
    02:00 +7°C° 0 mm 1 mps 683 mmHg 79%
    03:00 +6°C° 0 mm 1 mps 683 mmHg 78%
    04:00 +6°C° 0 mm 1 mps 683 mmHg 76%
    05:00 +6°C° 0 mm 1 mps 683 mmHg 74%
    06:00 +6°C° 0 mm 1 mps 683 mmHg 72%
    07:00 +7°C° 0 mm 1 mps 683 mmHg 67%
    08:00 +9°C° 0 mm 1 mps 683 mmHg 62%
    09:00 +10°C° 0 mm 1 mps 684 mmHg 57%
    10:00 +11°C° 0 mm 1 mps 683 mmHg 54%
    11:00 +12°C° 0 mm 1 mps 683 mmHg 51%
    12:00 +13°C° 0 mm 2 mps 683 mmHg 49%
    13:00 +13°C° 0 mm 2 mps 682 mmHg 48%
    14:00 +13°C° 0 mm 2 mps 682 mmHg 48%
    15:00 +14°C° 0 mm 2 mps 681 mmHg 47%
    16:00 +12°C° 0 mm 2 mps 681 mmHg 52%
    17:00 +11°C° 0 mm 1 mps 681 mmHg 57%
    18:00 +10°C° 0 mm 1 mps 681 mmHg 61%
    19:00 +10°C° 0 mm 1 mps 682 mmHg 61%
    20:00 +9°C° 0 mm 1 mps 682 mmHg 61%
    21:00 +9°C° 0 mm 1 mps 682 mmHg 61%
    22:00 +8°C° 0 mm 1 mps 682 mmHg 60%
    23:00 +8°C° 0 mm 1 mps 682 mmHg 59%
    Show more